Location: Hastringsfeld
(50.9620°N, 10.4787°E)
Time: 19:47:29
(UTC+00:00)

ATLAS 3B R/B - Visible Passes

Search period start: 22 April 2024 00:00
Search period end: 02 May 2024 00:00
Orbit: 944 x 1250 km, 63.8° (Epoch: 22 April)

Date Brightness Start Highest point End Pass type
(mag) Time Alt. Az. Time Alt. Az. Time Alt. Az.
22 Apr 3.4 01:24:48 10° NW 01:32:35 65° NE 01:40:22 10° ESE visible
22 Apr 3.3 03:15:54 10° NW 03:23:13 45° WSW 03:30:27 10° S visible
22 Apr 3.1 19:00:32 10° SW 19:07:43 84° NW 19:15:27 10° NE visible
22 Apr 4.4 20:52:40 10° W 20:59:30 38° NNW 21:06:41 10° NE visible
22 Apr 4.6 22:45:37 10° NW 22:52:20 32° N 22:59:13 10° ENE visible
23 Apr 3.8 00:37:19 10° NW 00:44:52 51° NNE 00:52:29 10° ESE visible
23 Apr 3.0 02:28:18 10° NW 02:36:02 64° SW 02:43:40 10° SSE visible
23 Apr 4.1 20:04:36 10° WSW 20:11:37 46° NNW 20:19:03 10° NE visible
23 Apr 4.7 21:57:38 10° WNW 22:04:15 31° N 22:11:07 10° ENE visible
23 Apr 4.2 23:49:45 10° NW 23:57:01 42° NNE 00:04:24 10° E visible
24 Apr 3.0 01:40:48 10° NW 01:48:40 87° SW 01:56:29 10° SE visible
24 Apr 3.7 19:16:43 10° WSW 19:23:51 59° NW 19:31:30 10° NE visible
24 Apr 4.6 21:09:31 10° WNW 21:16:11 33° N 21:23:07 10° NE visible
24 Apr 4.4 23:02:05 10° NW 23:09:05 36° NNE 23:16:12 10° E visible
25 Apr 3.3 00:53:20 10° NW 01:01:09 71° NE 01:08:58 10° SE visible
25 Apr 3.4 02:44:30 10° NW 02:51:38 40° WSW 02:58:40 10° S visible
25 Apr 4.5 20:21:23 10° W 20:28:10 37° NNW 20:35:18 10° NE visible
25 Apr 4.6 22:14:17 10° NW 22:21:03 33° N 22:27:59 10° ENE visible
26 Apr 3.7 00:05:51 10° NW 00:13:29 55° NE 00:21:09 10° ESE visible
26 Apr 3.0 01:56:52 10° NW 02:04:29 58° WSW 02:12:02 10° SSE visible
26 Apr 4.2 19:33:17 10° W 19:40:16 43° NNW 19:47:37 10° NE visible
26 Apr 4.7 21:26:20 10° WNW 21:32:58 31° N 21:39:49 10° ENE visible
26 Apr 4.0 23:18:19 10° NW 23:25:42 44° NNE 23:33:07 10° E visible
27 Apr 2.9 01:09:20 10° NW 01:17:11 80° SW 01:24:57 10° SE visible
27 Apr 4.0 03:01:08 10° WNW 03:06:58 23° WSW 03:12:44 10° SSW visible
27 Apr 4.7 20:38:14 10° WNW 20:44:54 32° N 20:51:48 10° NE visible
27 Apr 4.3 22:30:41 10° NW 22:37:46 37° NNE 22:44:57 10° E visible
28 Apr 3.1 00:21:52 10° NW 00:29:43 77° NE 00:37:32 10° SE visible
28 Apr 3.5 02:13:08 10° NW 02:20:02 35° WSW 02:26:51 10° S visible
28 Apr 4.5 19:50:06 10° W 19:56:51 35° NNW 20:03:55 10° NE visible
28 Apr 4.5 21:42:55 10° NW 21:49:45 33° N 21:56:44 10° ENE visible
28 Apr 3.5 23:34:23 10° NW 23:42:06 59° NE 23:49:48 10° ESE visible
29 Apr 3.1 01:25:25 10° NW 01:32:56 52° WSW 01:40:22 10° SSE visible
29 Apr 4.5 03:19:14 10° W 03:22:01 12° W 03:24:48 10° WSW visible
29 Apr 4.3 19:02:00 10° W 19:08:55 41° NNW 19:16:13 10° NE visible
29 Apr 4.6 20:55:01 10° WNW 21:01:41 32° N 21:08:33 10° ENE visible
29 Apr 3.9 22:46:53 10° NW 22:54:20 47° NNE 23:01:51 10° ESE visible
30 Apr 2.9 00:37:52 10° NW 00:45:41 73° SW 00:53:24 10° SSE visible
30 Apr 4.1 02:29:56 10° WNW 02:35:18 20° WSW 02:40:26 11° SSW visible
30 Apr 4.7 20:06:58 10° WNW 20:13:36 32° N 20:20:29 10° NE visible
30 Apr 4.2 21:59:16 10° NW 22:06:26 39° NNE 22:13:43 10° E visible
30 Apr 3.0 23:50:23 10° NW 23:58:15 84° NE 00:05:27 13° SE visible
01 May 3.7 01:41:47 10° NW 01:48:25 31° WSW 01:52:33 20° SSW visible
01 May 4.6 19:18:50 10° WNW 19:25:34 34° NNW 19:32:34 10° NE visible
01 May 4.4 21:11:34 10° NW 21:18:27 34° NNE 21:25:30 10° ENE visible
01 May 3.4 23:02:55 10° NW 23:10:41 64° NE 23:18:09 11° ESE visible
